Wind_Speed
41 47 53 66 65 59 58 57 45 43 41 43 45 40 36 37 37 37 36 41 41 42 44 43 29 27 28 31 34 35 33 25 17 18 21 23 20 21 33 25 33 33 31 32 34
33 40 48 56 62 52 53 54 56 54 48 47 48 47 44 44 46 41 41 42 43 42 42 36 34 31 31 35 36 36 33 24 20 23 27 26 23 20 29 27 29 29 30 31 36
23 31 36 43 52 62 58 58 57 58 58 56 58 57 54 52 58 54 52 50 43 44 42 38 40 37 34 41 42 36 28 25 26 27 29 28 23 21 26 26 21 34 35 31 30
17 17 23 30 37 44 58 65 68 64 65 63 61 64 63 61 60 59 56 61 63 63 47 40 40 41 38 41 38 38 29 26 27 27 31 31 25 27 29 28 29 31 33 32 29
22 22 23 20 24 38 48 54 57 63 66 66 66 65 73 69 61 66 53 46 51 61 58 47 48 39 42 37 36 35 31 24 26 28 31 37 33 29 25 29 27 28 29 25 29
30 28 28 28 30 31 31 32 34 37 38 36 36 39 38 42 26 31 26 25 30 33 35 40 41 39 44 38 37 35 32 25 26 28 29 33 25 34 28 39 34 28 26 27 29
38 36 35 36 36 37 38 39 40 38 35 38 35 36 30 26 33 32 31 26 26 26 32 34 38 43 35 35 34 34 29 28 27 28 32 34 27 33 34 40 31 23 26 28 29
41 43 43 42 42 41 41 41 42 42 42 43 42 38 34 28 34 31 34 32 29 28 28 28 29 33 35 33 36 29 29 27 22 24 33 32 26 19 36 30 26 27 26 27 30
42 41 42 45 48 48 47 47 48 48 47 46 44 43 36 31 33 35 37 32 31 30 29 32 31 31 32 37 30 31 27 25 22 24 29 34 29 17 29 26 27 30 30 29 29
50 49 47 45 44 45 47 50 49 50 50 50 48 44 39 35 38 40 38 35 34 33 33 32 33 34 38 33 28 24 22 24 23 19 29 33 28 23 25 28 30 32 29 28 29
57 56 55 53 51 49 45 46 45 44 41 42 44 41 37 33 33 40 43 37 36 38 35 30 36 38 27 26 22 22 23 25 25 23 27 31 33 26 27 33 35 28 27 27 28
60 61 62 60 57 57 55 52 51 48 44 39 38 33 34 27 29 32 42 40 40 38 33 37 39 31 28 28 27 28 28 26 24 23 29 33 31 29 33 31 23 24 25 25 27
66 65 65 65 64 62 63 61 57 56 55 47 43 40 34 36 32 30 31 34 34 37 36 37 30 27 30 26 29 29 28 24 24 22 29 29 28 23 21 25 24 23 23 24 24
75 73 71 69 69 67 68 67 64 62 62 56 50 45 41 38 36 32 33 32 32 29 33 33 32 28 29 33 28 31 24 24 27 27 26 21 25 23 19 20 21 22 18 20 22
80 81 79 76 75 73 72 70 67 65 64 59 59 52 50 47 38 33 31 33 31 30 32 26 32 28 32 28 27 28 27 26 29 31 28 23 22 15 20 17 15 16 18 17 21
86 85 85 84 82 82 77 74 73 71 70 65 64 54 54 49 47 43 40 34 34 34 31 30 28 28 29 25 32 31 29 31 29 25 25 19 19 13 11 18 16 16 19 20 19
69 72 81 87 87 88 84 81 79 79 66 70 69 63 55 52 49 49 47 44 41 39 39 33 32 29 32 35 35 36 33 29 23 20 20 13 16 15 15 20 19 19 19 19 17
55 59 61 66 72 80 87 86 85 72 68 65 71 71 60 55 50 50 49 48 45 41 37 34 37 38 34 33 31 32 27 24 17 12 12 22 24 7 14 18 19 15 17 16 12
40 45 48 47 48 54 64 82 87 71 69 70 51 69 70 62 55 53 50 47 45 43 42 38 34 28 38 30 32 32 31 19 22 25 16 14 16 23 22 16 16 14 15 14 15
37 37 41 40 40 44 51 73 81 78 77 44 64 47 47 63 60 58 52 48 45 46 42 39 37 34 31 32 34 35 25 22 21 21 20 16 16 12 20 7 19 18 17 13 15
27 28 32 36 39 42 46 60 68 79 76 62 55 58 42 41 47 57 56 50 46 43 41 44 41 36 35 42 33 36 33 26 23 21 13 13 11 20 18 18 14 17 16 13 14
19 18 32 35 37 39 31 32 49 69 58 74 79 74 71 45 41 49 60 56 54 49 46 37 50 40 42 38 34 35 33 29 29 23 20 17 12 28 27 18 15 13 15 10 12
14 14 17 21 28 27 22 33 48 62 67 72 81 80 73 68 52 42 54 55 42 55 52 40 49 45 37 43 45 42 36 35 32 28 22 20 15 19 27 22 18 12 13 10 10
14 17 19 25 27 26 21 31 42 52 71 74 83 74 84 79 78 61 46 51 48 57 49 42 43 44 48 42 42 42 41 37 33 32 27 24 16 24 23 18 14 13 12 11 9
10 18 26 29 26 32 28 28 24 36 49 74 79 73 72 70 60 66 47 46 48 60 52 50 51 48 42 33 38 39 38 37 38 32 29 20 17 22 21 18 15 21 11 11 9
11 8 10 17 15 18 30 26 24 26 36 54 74 71 67 71 65 49 45 37 50 61 54 52 50 48 46 43 36 47 45 41 37 35 32 27 22 16 20 20 18 23 11 9 10
12 9 11 5 11 16 15 25 28 26 37 38 50 67 67 69 71 76 58 54 50 48 56 57 53 51 52 48 47 41 49 43 41 38 32 31 20 20 20 18 23 23 12 10 11
Wind_Direction
244 244 240 236 234 230 228 235 235 232 231 231 241 236 236 241 245 245 248 255 262 264 267 281 276 276 287 297 299 300 301 301 290 278 272 274 285 298 292 291 292 292 293 299 306
251 243 240 239 231 225 232 236 231 231 233 239 238 238 243 243 250 254 255 257 260 269 270 268 268 269 287 297 295 295 292 292 277 269 276 277 276 272 282 294 291 287 291 302 305
250 246 234 236 236 236 230 235 237 238 241 242 244 244 245 245 247 248 251 257 260 264 267 261 260 266 285 289 295 289 286 281 276 277 279 281 279 275 273 285 292 296 301 303 307
259 254 243 237 238 242 245 244 242 248 246 248 247 248 253 252 259 261 259 255 253 258 259 258 263 273 281 285 287 284 281 277 279 281 283 285 274 273 278 284 291 296 304 309 313
255 253 255 258 247 244 245 249 250 251 250 252 253 260 254 257 253 258 261 257 249 253 255 255 260 268 275 279 280 280 279 278 289 296 296 297 283 273 276 279 288 300 308 315 323
257 254 247 243 243 248 245 250 246 246 246 246 249 247 248 244 244 268 281 259 250 252 260 262 263 261 265 267 277 277 280 295 293 297 300 295 276 278 279 280 282 298 297 312 322
259 255 249 246 243 245 243 241 241 242 257 245 245 256 252 253 256 261 267 266 260 255 257 256 250 251 259 265 269 269 281 285 293 295 285 283 288 286 287 289 300 321 310 309 319
258 256 257 254 250 249 249 250 251 247 245 246 246 251 257 253 259 257 258 258 254 251 247 250 241 243 251 255 253 267 275 284 298 289 282 288 303 277 291 291 303 311 307 302 315
262 260 257 254 255 253 250 251 252 252 251 251 253 256 258 251 253 253 249 250 251 250 250 246 242 244 240 244 256 262 277 282 279 272 280 292 292 283 275 288 304 301 302 304 311
260 257 256 255 254 252 251 251 249 249 250 250 251 255 259 254 249 246 248 245 247 247 246 245 245 240 236 246 268 270 270 276 275 256 267 278 286 291 294 290 296 302 296 302 306
262 259 255 253 252 251 248 249 249 248 244 248 248 250 253 246 243 240 238 239 240 241 243 244 245 249 261 267 268 257 245 250 249 255 265 266 281 287 280 293 307 302 297 298 303
261 258 256 253 250 251 249 246 245 248 246 242 243 238 243 242 238 235 234 238 241 247 242 238 246 253 260 261 256 252 250 253 258 258 262 267 287 294 290 294 297 297 296 297 300
259 258 255 253 250 246 247 246 245 244 244 240 241 244 234 240 230 226 232 233 235 239 241 247 252 245 251 245 248 252 253 256 259 257 264 281 302 304 299 306 303 301 301 303 298
261 257 252 252 249 247 246 245 244 245 247 244 237 239 238 237 235 226 233 230 233 237 237 238 241 238 236 239 242 245 254 251 254 258 264 274 287 289 309 298 304 310 306 297 295
259 258 254 250 247 246 243 244 244 243 245 246 243 237 237 235 241 229 231 230 235 236 234 232 237 232 238 240 245 254 247 249 256 258 272 278 284 298 301 289 300 309 304 307 302
258 251 250 249 246 242 242 240 239 239 239 242 245 239 236 236 234 227 229 226 226 232 231 230 232 229 238 240 239 244 243 246 250 267 272 283 276 292 281 266 288 298 293 309 298
265 262 252 243 243 241 238 237 235 234 239 240 243 243 237 232 231 230 227 228 229 227 230 228 230 228 232 228 231 236 242 247 257 257 278 290 271 284 248 261 289 294 286 301 298
267 262 258 251 248 242 237 236 233 234 237 240 244 243 237 235 226 226 229 227 226 230 235 234 230 227 235 233 240 245 248 249 243 259 279 259 293 286 274 270 295 290 289 292 287
272 264 258 251 248 246 238 234 231 231 234 230 235 243 241 235 229 227 229 228 229 230 228 234 235 235 241 238 234 242 243 248 228 215 231 254 278 298 295 324 320 291 287 286 290
277 268 258 253 249 244 244 235 226 224 226 219 226 234 239 237 233 229 227 226 228 227 225 233 236 233 237 228 229 236 247 234 244 243 239 253 277 262 280 265 279 297 292 292 293
281 268 255 253 252 249 245 241 226 220 215 206 210 215 224 228 231 231 230 230 226 228 226 219 231 227 233 230 231 235 228 243 238 233 241 241 260 251 241 254 274 282 302 287 296
289 279 256 255 259 261 258 237 223 216 209 210 214 217 206 207 220 226 226 228 233 230 228 226 228 216 234 241 235 242 244 246 248 241 230 219 243 257 271 275 284 276 312 315 292
288 274 266 249 247 254 240 223 215 210 198 203 216 217 210 206 200 221 226 219 232 231 227 219 223 220 221 231 233 229 233 236 242 240 229 233 231 247 268 285 278 260 299 308 298
293 291 272 255 246 241 234 224 227 214 205 207 213 215 222 220 218 207 223 217 214 233 225 222 231 228 229 238 235 231 233 241 241 245 238 232 212 258 282 297 266 265 284 293 284
277 280 265 260 256 242 219 231 233 227 215 209 212 207 213 215 209 214 211 215 219 228 225 221 220 225 223 222 238 238 237 240 246 251 249 243 234 220 233 264 274 274 262 279 270
310 297 310 251 197 237 223 214 223 232 216 212 215 206 199 201 196 199 204 203 220 224 221 219 215 220 221 222 223 236 233 233 237 242 244 238 231 232 240 223 252 265 253 274 246
281 291 285 288 217 226 219 217 225 229 213 212 216 201 202 203 199 203 197 194 201 220 216 217 214 217 223 222 222 224 233 232 235 238 241 242 235 221 230 233 226 246 254 274 233
Height
5820 5822 5825 5829 5834 5838 5841 5845 5848 5850 5851 5855 5856 5858 5859 5862 5863 5864 5867 5867 5864 5865 5866 5869 5868 5869 5869 5870 5869 5869 5869 5867 5867 5868 5866 5863 5858 5855 5849 5848 5843 5841 5840 5837 5834
5812 5812 5816 5819 5824 5828 5832 5836 5838 5841 5843 5847 5848 5850 5852 5853 5857 5859 5858 5862 5859 5858 5860 5863 5863 5863 5864 5864 5863 5863 5862 5862 5861 5859 5857 5855 5854 5854 5849 5844 5839 5836 5834 5832 5830
5805 5806 5807 5811 5816 5821 5823 5827 5829 5832 5834 5837 5840 5841 5842 5844 5848 5849 5853 5855 5853 5852 5853 5854 5855 5857 5859 5858 5858 5855 5856 5856 5854 5852 5850 5848 5848 5847 5843 5840 5839 5831 5827 5827 5824
5800 5801 5803 5805 5807 5811 5814 5817 5819 5822 5825 5827 5829 5831 5834 5834 5838 5839 5843 5843 5843 5842 5843 5847 5851 5849 5852 5852 5852 5850 5849 5850 5848 5847 5845 5844 5842 5840 5837 5835 5830 5828 5826 5823 5821
5795 5795 5796 5797 5799 5802 5804 5807 5809 5811 5814 5817 5818 5819 5823 5823 5831 5827 5830 5830 5830 5832 5838 5840 5841 5845 5844 5847 5847 5845 5844 5844 5843 5842 5841 5839 5836 5834 5833 5828 5826 5824 5822 5820 5817
5788 5789 5789 5790 5792 5795 5796 5799 5800 5801 5805 5806 5808 5807 5808 5812 5821 5818 5820 5821 5822 5826 5829 5831 5834 5839 5837 5840 5842 5840 5838 5839 5838 5838 5836 5832 5832 5825 5829 5820 5822 5819 5817 5813 5812
5780 5781 5782 5784 5785 5787 5788 5791 5792 5793 5796 5797 5798 5797 5800 5811 5811 5811 5812 5815 5816 5819 5821 5824 5826 5828 5835 5835 5836 5836 5835 5833 5834 5833 5830 5827 5828 5825 5823 5817 5819 5817 5814 5810 5808
5773 5773 5773 5774 5775 5777 5779 5780 5781 5783 5786 5788 5789 5789 5790 5802 5799 5804 5805 5809 5811 5813 5815 5818 5820 5822 5825 5828 5829 5831 5829 5829 5830 5828 5823 5823 5824 5825 5816 5815 5816 5813 5810 5806 5804
5762 5762 5763 5765 5765 5767 5769 5770 5771 5773 5776 5777 5779 5780 5785 5794 5795 5797 5797 5803 5804 5806 5809 5811 5813 5817 5820 5820 5824 5823 5824 5825 5826 5824 5820 5817 5818 5820 5814 5813 5811 5809 5806 5802 5799
5750 5752 5753 5754 5755 5756 5758 5758 5759 5762 5764 5766 5768 5773 5778 5784 5787 5788 5791 5795 5798 5800 5802 5805 5808 5809 5809 5815 5819 5819 5821 5823 5823 5826 5815 5815 5813 5814 5812 5808 5808 5805 5801 5798 5796
5734 5736 5738 5742 5743 5744 5746 5747 5749 5750 5751 5757 5760 5764 5766 5772 5778 5779 5782 5787 5789 5792 5795 5801 5801 5800 5811 5812 5813 5816 5819 5821 5823 5821 5815 5813 5808 5809 5808 5804 5802 5799 5797 5794 5791
5717 5719 5721 5725 5729 5730 5733 5734 5735 5740 5742 5748 5751 5757 5761 5766 5769 5771 5773 5778 5780 5785 5791 5791 5791 5801 5804 5803 5806 5808 5809 5812 5812 5813 5810 5806 5804 5804 5802 5800 5798 5795 5792 5789 5787
5698 5700 5702 5707 5712 5714 5716 5721 5725 5726 5728 5739 5744 5748 5756 5757 5761 5764 5768 5770 5773 5777 5781 5784 5792 5796 5795 5798 5798 5801 5804 5807 5806 5808 5805 5800 5799 5798 5798 5795 5793 5790 5788 5785 5783
5673 5677 5681 5686 5692 5696 5698 5704 5709 5713 5713 5726 5733 5738 5744 5749 5753 5757 5760 5764 5766 5771 5775 5779 5784 5786 5789 5790 5795 5796 5801 5801 5799 5799 5799 5800 5796 5795 5793 5791 5787 5785 5783 5781 5778
5644 5648 5655 5662 5667 5672 5679 5688 5692 5698 5699 5715 5719 5728 5732 5738 5749 5752 5754 5756 5761 5766 5770 5774 5775 5780 5782 5787 5791 5794 5795 5795 5794 5792 5793 5793 5792 5792 5792 5790 5785 5782 5779 5777 5775
5610 5616 5624 5632 5639 5644 5656 5665 5670 5677 5683 5700 5702 5716 5722 5730 5736 5740 5744 5749 5755 5758 5761 5766 5770 5773 5777 5782 5784 5787 5787 5788 5788 5788 5786 5788 5789 5791 5792 5786 5782 5780 5777 5773 5771
5579 5583 5592 5600 5606 5615 5629 5636 5644 5651 5687 5686 5689 5699 5712 5718 5725 5729 5735 5738 5742 5748 5752 5759 5763 5768 5771 5775 5778 5778 5781 5783 5784 5784 5783 5786 5785 5785 5783 5779 5778 5777 5773 5771 5768
5556 5559 5563 5571 5576 5585 5596 5605 5613 5656 5670 5679 5676 5681 5695 5705 5713 5718 5723 5729 5735 5741 5747 5752 5754 5759 5765 5769 5772 5772 5776 5779 5780 5786 5789 5783 5782 5784 5776 5773 5774 5772 5770 5767 5767
5540 5541 5543 5551 5556 5561 5566 5574 5608 5648 5657 5661 5663 5665 5676 5689 5701 5706 5712 5722 5729 5734 5740 5744 5751 5757 5757 5763 5766 5768 5768 5776 5776 5778 5782 5783 5782 5776 5772 5771 5769 5767 5766 5765 5764
5526 5525 5530 5534 5539 5543 5545 5559 5598 5622 5631 5639 5649 5657 5661 5675 5684 5693 5701 5712 5718 5725 5734 5739 5744 5748 5751 5755 5757 5761 5765 5767 5769 5771 5775 5780 5779 5778 5771 5772 5768 5765 5763 5764 5762
5516 5516 5520 5522 5524 5527 5532 5554 5577 5589 5598 5608 5618 5634 5652 5663 5669 5679 5691 5702 5709 5717 5724 5732 5735 5742 5743 5740 5752 5755 5757 5761 5765 5768 5772 5776 5778 5769 5769 5767 5766 5763 5761 5761 5759
5509 5510 5509 5513 5514 5516 5528 5544 5554 5565 5578 5580 5590 5607 5624 5647 5661 5666 5678 5689 5697 5706 5712 5723 5724 5733 5735 5740 5746 5748 5751 5756 5756 5761 5764 5771 5776 5764 5764 5763 5762 5763 5759 5758 5756
5504 5506 5504 5506 5506 5509 5517 5521 5522 5533 5548 5559 5575 5590 5602 5620 5637 5654 5663 5680 5685 5689 5700 5711 5712 5722 5730 5730 5732 5736 5743 5747 5752 5755 5759 5763 5766 5764 5759 5760 5759 5760 5757 5756 5754
5499 5499 5499 5498 5500 5503 5507 5510 5511 5519 5534 5543 5556 5575 5590 5608 5622 5635 5651 5663 5674 5675 5692 5700 5705 5712 5716 5725 5728 5733 5736 5741 5745 5747 5751 5755 5763 5758 5757 5756 5757 5755 5755 5754 5753
5494 5494 5491 5490 5493 5493 5498 5503 5507 5512 5520 5533 5542 5557 5580 5599 5616 5627 5641 5653 5659 5663 5678 5684 5692 5701 5712 5720 5718 5725 5730 5735 5737 5742 5744 5751 5753 5756 5758 5757 5757 5753 5753 5753 5752
5489 5487 5483 5482 5483 5487 5490 5498 5500 5504 5510 5521 5529 5549 5562 5577 5598 5614 5628 5638 5647 5653 5663 5674 5684 5692 5700 5708 5713 5714 5720 5727 5731 5735 5738 5742 5747 5751 5752 5754 5755 5751 5751 5751 5750
5485 5484 5483 5482 5484 5486 5488 5491 5494 5497 5502 5509 5519 5537 5551 5564 5571 5585 5598 5614 5627 5639 5649 5662 5677 5680 5687 5698 5706 5707 5712 5721 5725 5729 5734 5735 5742 5745 5747 5748 5750 5748 5748 5749 5749